Flag for Bangladesh

Past Weather in Jessore, Bangladesh — Yesterday and Last 2 Weeks

Now
64 °F

Passing clouds.


Feels Like: 64 °F
Forecast: 91 / 81 °F
Wind: 6 mph from Southwest

Location: Kunming Airport

Current Time: Aug 8, 2020 at 1:13:36 am

Latest Report: Aug 8, 2020 at 12:00 am


Visibility: N/A

Pressure: 30.07 "Hg

Humidity: 100%

Dew Point: 64 °F

Location of JessoreLocation

Past Weather in Jessore — Graph

°F

Jessore Temperature Yesterday

Maximum temperature yesterday: 72 °F (at 2:00 pm)
Minimum temperature yesterday: 64 °F (at 3:00 am)
Average temperature yesterday: 66 °F

High & Low Weather Summary for the Past Weeks

 TemperatureHumidityPressure
High82 °F (Jul 25, 3:00 pm)100% (Jul 23, 11:00 pm)30.21 "Hg (Jul 23, 11:00 pm)
Low54 °F (Jul 27, 4:00 am)37% (Jul 27, 3:00 pm)29.92 "Hg (Aug 3, 3:00 pm)
Average69 °F79%30.08 "Hg
* Reported Jul 23 11:00 pm — Aug 7 11:00 pm, Jessore. Weather by CustomWeather, © 2020

Note: Actual official high and low records may vary slightly from our data, if they occured in-between our weather recording intervals... More about our weather records

Jessore Weather History for the Previous 24 Hours

Scroll right to see more
 ConditionsComfort  
Time TempWeatherWind HumidityBarometerVisibility
11:00 pm
Fri, Aug 7
64 °FPassing clouds.6 mph100%30.09 "HgN/A
10:00 pm66 °FPassing clouds.6 mph100%30.09 "HgN/A
9:00 pm66 °FPassing clouds.6 mph100%30.09 "HgN/A
8:00 pm66 °FPassing clouds.6 mph100%30.07 "HgN/A
7:00 pm66 °FPassing clouds.3 mph94%30.04 "HgN/A
6:00 pm66 °FPassing clouds.3 mph94%30.04 "HgN/A
5:00 pm68 °FPassing clouds.8 mph88%30.01 "HgN/A
4:00 pm70 °FScattered clouds.10 mph88%30.01 "HgN/A
3:00 pm70 °FScattered clouds.15 mph88%30.01 "HgN/A
2:00 pm72 °FScattered clouds.10 mph78%30.04 "HgN/A
1:00 pm68 °FMore clouds than sun.6 mph94%30.04 "HgN/A
12:00 pm68 °FMore clouds than sun.1 mph88%30.07 "HgN/A
11:00 am66 °FMore clouds than sun.3 mph100%30.09 "Hg6 mi
10:00 am66 °FMore clouds than sun.8 mph100%30.12 "HgN/A
9:00 am64 °FSprinkles. More clouds than sun.8 mph100%30.12 "Hg4 mi
8:00 am64 °FSprinkles. More clouds than sun.3 mph100%30.12 "Hg4 mi
7:00 am64 °FSprinkles. More clouds than sun.No wind100%30.09 "Hg5 mi
6:00 am64 °FPartly sunny.No wind100%30.07 "HgN/A
5:00 am64 °FPartly sunny.1 mph100%30.07 "HgN/A
4:00 am64 °FPassing clouds.3 mph100%30.04 "HgN/A
3:00 am64 °FPassing clouds.1 mph100%30.07 "HgN/A
2:00 am66 °FMostly cloudy.3 mph94%30.07 "HgN/A
1:00 am66 °FMostly cloudy.3 mph88%30.07 "HgN/A
Weather by CustomWeather, © 2020

See weather overview